Regional Weather Roundup
Issued by NWS

Home | Current Version | Previous Version | Graphics & Text | Print | Product List | Glossary On
Versions: 1 2 3 4 5 6 7 8 9 10 11 12 13 14 15 16 17 18 19 20 21 22 23 24 25 26 27 28 29 30 31 32 33 34 35 36 37 38 39 40 41 42 43 44 45 46 47 48 49 50
000
ASUS43 KBIS 280502
RWRND

NORTH DAKOTA REGIONAL WEATHER ROUNDUP
NATIONAL WEATHER SERVICE BISMARCK ND
1200 AM CDT THU MAY 28 2015

NOTE: "FAIR" INDICATES FEW OR NO CLOUDS BELOW 12,000 FEET WITH NO
SIGNIFICANT WEATHER AND/OR OBSTRUCTIONS TO VISIBILITY.


NDZ001>003-009>011-017-280600-
NORTHWEST NORTH DAKOTA

CITY           SKY/WX    TMP DP  RH WIND       PRES   REMARKS
WILLISTON      MOCLDY    57  53  86 NE7       29.92S
MINOT          LGT RAIN  60  56  86 E10       29.94S
MINOT AFB      LGT RAIN  60  60 100 E6        29.94S
$$

NDZ018>021-031>035-040>046-280600-
SOUTHWEST NORTH DAKOTA

CITY           SKY/WX    TMP DP  RH WIND       PRES   REMARKS
BISMARCK       CLOUDY    61  59  93 E7        29.95F
DICKINSON      CLOUDY    57  54  89 S9        29.90S
GARRISON         N/A     60  58  92 E10       29.93F
HETTINGER ARPT FOG       53  52  96 CALM      29.95F VSB 1/2
$$

NDZ004>008-012>016-024-026-027-054-280600-
NORTHEAST NORTH DAKOTA

CITY           SKY/WX    TMP DP  RH WIND       PRES   REMARKS
GRAND FORKS    MOCLDY    60  52  74 CALM      29.98F
GRND FRKS AFB  MOCLDY    60  52  75 SE1       29.99F
DEVILS LAKE    CLOUDY    63  52  67 S7        30.01R
$$

NDZ022-023-025-028>030-036>039-047>053-280600-
SOUTHEAST NORTH DAKOTA

CITY           SKY/WX    TMP DP  RH WIND       PRES   REMARKS
FARGO          CLOUDY    65  55  70 E7        29.97F
JAMESTOWN      CLOUDY    62  56  80 E6        29.97S
$$



USA.gov is the U.S. government's official web portal to all federal, state and local government web resources and services.